Location: East Arcadia
(34.1056°N, 118.0176°W)
Time: 00:58:24
(UTC+00:00)

ASTRO E2 - Pass Details

Date: 01 April 2023
Orbit: 479 x 482 km, 31.4° (Epoch: 08 June)

Event Time Altitude Azimuth Distance (km) Brightness Sun altitude
Exits shadow 13:00:53 - 225° (SW) 1,836 5.0 -8.7°
Reaches altitude 10° 13:01:28 10° 221° (SW) 1,635 4.8 -8.6°
Maximum altitude 13:04:40 27° 162° (SSE) 940 4.1 -8.0°
Drops below altitude 10° 13:07:54 10° 102° (ESE) 1,640 6.5 -7.3°
Sets 13:10:19 0° 90° (E) 2,521 8.3 -6.8°
